Simultaneous Nadir Overpasses (SNOs) Predictions

Prediction of SNOs between METOP-C and LANDSAT-8 Satellite Orbit:

Table of predicted SNOs for the next 14.0 days since TLE Epoch: 5/21/2022
Index Date (METOP-C) Time (METOP-C) Lat,Lon (METOP-C) SZA (METOP-C ) Date (LANDSAT-8) Time (LANDSAT-8) Lat,Lon (LANDSAT-8) SZA (LANDSAT-8 ) Distance(km) Time Diff (sec)
1 05/22/2022 10:47:57 -81.15,-121.86 117.03 05/22/2022 10:49:06 -81.16,-121.73 116.98 2.52 69
2 05/22/2022 11:38:37 81.16, 45.88 63.02 05/22/2022 11:38:32 81.16, 46.02 63.04 2.54 5
3 05/25/2022 06:22:16 -81.14, -55.58 117.58 05/25/2022 06:23:20 -81.15, -55.41 117.53 3.01 64
4 05/25/2022 07:12:54 81.18, 112.83 62.56 05/25/2022 07:12:45 81.18, 112.68 62.54 2.62 9
5 05/28/2022 01:56:35 -81.15, 11.00 118.04 05/28/2022 01:57:34 -81.15, 11.08 118.01 1.35 59
6 05/28/2022 02:47:14 81.17, 178.95 62.04 05/28/2022 02:46:59 81.18, 179.14 62.06 3.32 15
7 05/30/2022 21:30:53 -81.16, 77.88 118.42 05/30/2022 21:31:47 -81.16, 77.74 118.41 2.53 54
8 05/30/2022 22:21:33 81.17,-114.62 61.60 05/30/2022 22:21:13 81.17,-114.59 61.59 0.67 20
9 06/02/2022 17:05:11 -81.16, 144.32 118.81 06/02/2022 17:05:59 -81.16, 144.20 118.80 1.99 48



Historial Predications of SNOs between METOP-C and LANDSAT-8
